Cloud_Cover
0 0 0 0 0 0 0 0 0 0 0 0 0 0 0 0 0 0 0 0 0 0 0 0 0 0 8 98 84 5 40 75 92 100 45 50 74 98 100 0 0 0 1 0
0 0 0 0 0 0 0 0 0 0 0 0 0 0 0 0 0 0 0 0 0 0 0 0 0 0 0 46 100 80 10 20 85 81 100 98 39 6 0 0 1 0 0 0
0 0 0 0 0 0 0 0 0 0 0 0 0 0 0 0 0 0 0 0 0 0 0 0 0 0 0 0 0 0 1 4 53 43 4 0 26 1 0 0 0 0 5 2
0 0 0 0 0 0 0 0 0 0 0 0 0 0 0 0 0 0 0 0 0 0 0 0 0 0 0 0 0 0 1 10 1 3 7 5 0 2 5 3 1 10 4 5
0 0 0 0 0 0 5 0 0 0 0 0 0 0 0 0 0 0 0 0 0 0 0 0 0 0 0 0 0 0 0 0 0 0 3 11 8 9 30 53 85 47 16 0
0 0 0 0 0 0 5 0 0 0 5 0 0 0 0 0 0 0 0 0 0 0 0 0 0 0 1 0 0 0 0 0 0 0 0 0 0 0 1 0 5 99 100 92
0 0 0 0 0 0 4 0 0 0 0 0 3 48 28 1 0 0 0 0 0 0 0 0 0 0 0 0 0 0 0 0 0 0 0 0 0 0 0 0 0 3 15 60
0 0 0 3 3 2 2 0 4 5 43 39 49 72 45 18 4 0 0 0 0 0 0 0 0 0 0 0 0 0 0 0 0 0 0 0 0 0 0 0 0 0 0 1
3 0 0 5 5 5 24 5 5 5 18 100 100 92 12 5 5 0 0 0 0 0 0 0 0 0 0 0 0 0 0 0 0 0 0 0 0 0 0 0 0 1 5 1
0 0 0 0 5 5 5 5 3 5 2 1 5 4 0 4 2 8 47 85 79 3 0 0 0 0 0 0 0 0 0 0 0 0 0 0 0 0 0 0 5 18 8 8
0 0 0 2 3 2 4 19 62 99 100 100 100 94 53 80 95 100 100 100 31 12 1 0 0 3 0 0 0 0 0 0 0 0 0 0 0 0 0 0 0 0 3 0
4 3 77 44 5 91 49 87 84 100 100 100 100 100 100 100 100 100 100 74 68 90 96 5 2 0 5 0 0 0 0 0 0 0 0 0 0 0 0 0 0 0 0 0
2 4 5 17 9 52 99 100 100 55 74 17 65 33 100 100 100 100 100 100 100 100 100 51 10 0 0 0 0 0 0 0 0 0 1 0 0 0 0 0 0 0 0 0
14 70 21 68 79 27 5 5 53 49 2 3 3 38 96 20 100 99 99 99 56 75 58 37 5 0 0 0 0 0 0 0 1 1 2 0 0 0 0 0 0 0 0 0
0 1 33 89 87 19 4 1 2 3 5 63 64 88 85 61 22 86 100 100 95 63 100 98 64 23 5 0 0 0 0 0 0 4 2 0 0 0 0 0 0 0 0 0
4 0 4 1 13 5 3 5 58 63 99 100 92 100 100 84 100 86 100 98 96 27 100 100 100 100 100 72 4 1 6 1 1 1 0 0 0 0 0 0 0 3 0 0
99 100 68 9 7 5 5 5 85 100 100 100 100 100 100 100 100 100 37 18 97 100 99 60 100 100 100 100 79 15 0 0 0 0 0 0 0 5 22 50 65 83 77 38
0 0 0 1 4 80 100 86 93 93 100 100 100 100 100 100 100 100 96 73 5 7 4 58 5 5 86 100 98 9 9 0 0 0 4 30 74 100 100 100 100 100 100 99
0 0 0 0 2 4 0 4 2 4 5 5 10 37 43 42 44 53 72 12 1 0 0 0 0 0 1 21 2 9 18 7 20 66 97 100 100 100 100 100 100 100 100 100
0 3 3 5 5 8 5 44 19 31 12 17 29 14 5 1 0 0 0 0 0 0 0 0 0 1 7 2 6 11 19 65 100 100 100 100 100 100 100 100 100 100 100 100
5 9 5 10 2 5 5 5 5 3 0 0 0 2 2 1 6 12 14 13 10 5 8 5 26 62 8 5 13 45 100 100 100 100 100 100 100 100 100 100 100 100 100 100
6 17 12 5 5 29 26 5 5 5 5 11 13 19 32 26 51 74 99 100 100 100 100 100 93 44 7 20 86 100 100 100 100 100 100 100 100 100 100 100 100 100 100 100
100 63 6 5 14 5 58 12 18 37 60 91 98 62 44 79 100 51 10 16 20 85 74 94 85 4 32 100 71 76 100 100 100 100 100 100 100 100 100 100 100 100 100 100
100 100 95 97 15 23 74 34 5 17 5 5 5 0 0 19 0 0 15 70 100 96 100 100 17 6 29 100 99 100 100 100 100 100 100 100 100 100 100 100 100 100 100 100
100 95 100 95 5 5 5 4 2 0 0 0 0 0 0 0 5 5 14 100 100 100 100 93 85 77 100 100 100 100 100 100 100 100 100 100 100 100 100 100 100 100 100 100
100 91 16 5 5 5 0 0 3 0 0 0 0 0 1 4 8 87 100 100 67 100 100 100 98 100 100 100 100 100 100 100 100 100 100 100 100 100 100 100 100 100 100 100
16 4 3 3 1 0 2 5 0 3 5 0 0 3 5 10 93 100 100 100 100 100 100 100 100 100 100 100 100 100 100 100 100 100 100 100 100 100 100 100 100 100 100 100